Time,TemperatureF,DewpointF,PressureIn,WindDirection,WindDirectionDegrees,WindSpeedMPH,WindSpeedGustMPH,Humidity,HourlyPrecipIn,Conditions,Clouds,dailyrainin,SoftwareType,DateUTC
2013-01-08 00:04:00,32.0,24.0,-100.00,SW,230,1.0,11.0,72,0.00,,,0.00,,2013-01-08 05:04:00,
2013-01-08 00:12:00,32.0,24.0,-100.00,SW,230,1.0,11.0,72,0.00,,,0.00,,2013-01-08 05:12:00,
2013-01-08 00:22:00,32.0,25.0,-100.00,SW,235,9.0,13.0,73,0.00,,,0.00,,2013-01-08 05:22:00,
2013-01-08 00:33:00,32.0,25.0,-100.00,SW,235,9.0,13.0,73,0.00,,,0.00,,2013-01-08 05:33:00,
2013-01-08 00:43:00,32.0,24.0,-100.00,WSW,245,1.0,5.0,74,0.00,,,0.00,,2013-01-08 05:43:00,
2013-01-08 00:53:00,32.0,24.0,-100.00,WSW,245,1.0,5.0,74,0.00,,,0.00,,2013-01-08 05:53:00,
2013-01-08 01:03:00,32.0,25.0,-100.00,SW,235,7.0,10.0,74,0.00,,,0.00,,2013-01-08 06:03:00,
2013-01-08 01:12:00,32.0,25.0,-100.00,SW,235,7.0,10.0,74,0.00,,,0.00,,2013-01-08 06:12:00,
2013-01-08 01:22:00,33.0,25.0,-100.00,WSW,240,7.0,10.0,73,0.00,,,0.00,,2013-01-08 06:22:00,
2013-01-08 01:33:00,33.0,25.0,-100.00,WSW,240,7.0,10.0,73,0.00,,,0.00,,2013-01-08 06:33:00,
2013-01-08 01:42:00,33.0,25.0,-100.00,SW,230,0.0,5.0,73,0.00,,,0.00,,2013-01-08 06:42:00,
2013-01-08 01:53:00,33.0,25.0,-100.00,SW,230,0.0,5.0,73,0.00,,,0.00,,2013-01-08 06:53:00,
2013-01-08 02:02:00,32.0,25.0,-100.00,SW,230,0.0,0.0,74,0.00,,,0.00,,2013-01-08 07:02:00,
2013-01-08 02:12:00,32.0,25.0,-100.00,SW,230,0.0,0.0,74,0.00,,,0.00,,2013-01-08 07:12:00,
2013-01-08 02:22:00,32.0,25.0,-100.00,WSW,245,8.0,11.0,74,0.00,,,0.00,,2013-01-08 07:22:00,
2013-01-08 02:32:00,32.0,25.0,-100.00,WSW,245,8.0,11.0,74,0.00,,,0.00,,2013-01-08 07:32:00,
2013-01-08 02:42:00,33.0,25.0,-100.00,WSW,245,2.0,8.0,73,0.00,,,0.00,,2013-01-08 07:42:00,
2013-01-08 02:52:00,33.0,25.0,-100.00,WSW,245,2.0,8.0,73,0.00,,,0.00,,2013-01-08 07:52:00,
2013-01-08 03:02:00,33.0,26.0,-100.00,West,260,0.0,5.0,72,0.00,,,0.00,,2013-01-08 08:02:00,
2013-01-08 03:12:00,33.0,26.0,-100.00,West,260,0.0,5.0,72,0.00,,,0.00,,2013-01-08 08:12:00,
2013-01-08 03:22:00,33.0,25.0,-100.00,WSW,250,0.0,5.0,72,0.00,,,0.00,,2013-01-08 08:22:00,
2013-01-08 03:32:00,33.0,25.0,-100.00,WSW,250,0.0,5.0,72,0.00,,,0.00,,2013-01-08 08:32:00,
2013-01-08 03:42:00,33.0,25.0,-100.00,West,270,0.0,3.0,72,0.00,,,0.00,,2013-01-08 08:42:00,
2013-01-08 03:53:00,33.0,25.0,-100.00,West,270,0.0,3.0,72,0.00,,,0.00,,2013-01-08 08:53:00,
2013-01-08 04:02:00,33.0,25.0,-100.00,West,265,0.0,3.0,72,0.00,,,0.00,,2013-01-08 09:02:00,
2013-01-08 04:12:00,33.0,25.0,-100.00,West,265,0.0,3.0,72,0.00,,,0.00,,2013-01-08 09:12:00,
2013-01-08 04:22:00,34.0,26.0,-100.00,West,260,0.0,3.0,72,0.00,,,0.00,,2013-01-08 09:22:00,
2013-01-08 04:33:00,34.0,26.0,-100.00,West,260,0.0,3.0,72,0.00,,,0.00,,2013-01-08 09:33:00,
2013-01-08 04:42:00,32.0,25.0,-100.00,West,260,0.0,0.0,74,0.00,,,0.00,,2013-01-08 09:42:00,
2013-01-08 04:53:00,32.0,25.0,-100.00,West,260,0.0,0.0,74,0.00,,,0.00,,2013-01-08 09:53:00,
2013-01-08 05:03:00,32.0,25.0,-100.00,SSE,165,0.0,0.0,75,0.00,,,0.00,,2013-01-08 10:03:00,
2013-01-08 05:12:00,32.0,25.0,-100.00,SSE,165,0.0,0.0,75,0.00,,,0.00,,2013-01-08 10:12:00,
2013-01-08 05:22:00,34.0,27.0,-100.00,SW,220,0.0,0.0,74,0.00,,,0.00,,2013-01-08 10:22:00,
2013-01-08 05:33:00,34.0,27.0,-100.00,SW,220,0.0,0.0,74,0.00,,,0.00,,2013-01-08 10:33:00,
2013-01-08 05:42:00,36.0,27.0,-100.00,NW,320,0.0,2.0,71,0.00,,,0.00,,2013-01-08 10:42:00,
2013-01-08 05:53:00,36.0,27.0,-100.00,NW,320,0.0,2.0,71,0.00,,,0.00,,2013-01-08 10:53:00,
2013-01-08 06:02:00,34.0,26.0,-100.00,WNW,295,0.0,0.0,73,0.00,,,0.00,,2013-01-08 11:02:00,
2013-01-08 06:12:00,34.0,26.0,-100.00,WNW,295,0.0,0.0,73,0.00,,,0.00,,2013-01-08 11:12:00,
2013-01-08 06:23:00,33.0,26.0,-100.00,West,265,0.0,0.0,74,0.00,,,0.00,,2013-01-08 11:23:00,
2013-01-08 06:33:00,33.0,26.0,-100.00,West,265,0.0,0.0,74,0.00,,,0.00,,2013-01-08 11:33:00,
2013-01-08 06:42:00,35.0,27.0,-100.00,ENE,60,0.0,0.0,72,0.00,,,0.00,,2013-01-08 11:42:00,
2013-01-08 06:53:00,35.0,27.0,-100.00,ENE,60,0.0,0.0,72,0.00,,,0.00,,2013-01-08 11:53:00,
2013-01-08 07:03:00,35.0,27.0,-100.00,East,90,0.0,0.0,71,0.00,,,0.00,,2013-01-08 12:03:00,
2013-01-08 07:12:00,35.0,27.0,-100.00,East,90,0.0,0.0,71,0.00,,,0.00,,2013-01-08 12:12:00,
2013-01-08 07:22:00,32.0,25.0,-100.00,ENE,75,0.0,3.0,75,0.00,,,0.00,,2013-01-08 12:22:00,
2013-01-08 07:33:00,32.0,25.0,-100.00,ENE,75,0.0,3.0,75,0.00,,,0.00,,2013-01-08 12:33:00,
2013-01-08 07:43:00,30.0,25.0,-100.00,ESE,110,1.0,5.0,79,0.00,,,0.00,,2013-01-08 12:43:00,
2013-01-08 07:53:00,30.0,25.0,-100.00,ESE,110,1.0,5.0,79,0.00,,,0.00,,2013-01-08 12:53:00,
2013-01-08 08:03:00,31.0,25.0,-100.00,East,85,0.0,3.0,81,0.00,,,0.00,,2013-01-08 13:03:00,
2013-01-08 08:13:00,31.0,25.0,-100.00,East,85,0.0,3.0,81,0.00,,,0.00,,2013-01-08 13:13:00,
2013-01-08 08:22:00,31.0,26.0,-100.00,East,80,6.0,11.0,82,0.00,,,0.00,,2013-01-08 13:22:00,
2013-01-08 08:33:00,31.0,26.0,-100.00,East,80,6.0,11.0,82,0.00,,,0.00,,2013-01-08 13:33:00,
2013-01-08 08:43:00,33.0,27.0,-100.00,East,90,0.0,0.0,79,0.00,,,0.00,,2013-01-08 13:43:00,
2013-01-08 08:53:00,33.0,27.0,-100.00,East,90,0.0,0.0,79,0.00,,,0.00,,2013-01-08 13:53:00,
2013-01-08 09:03:00,36.0,27.0,-100.00,WSW,245,0.0,0.0,70,0.00,,,0.00,,2013-01-08 14:03:00,
2013-01-08 09:13:00,36.0,27.0,-100.00,WSW,245,0.0,0.0,70,0.00,,,0.00,,2013-01-08 14:13:00,
2013-01-08 09:23:00,40.0,27.0,-100.00,WSW,255,0.0,2.0,59,0.00,,,0.00,,2013-01-08 14:23:00,
2013-01-08 09:33:00,40.0,27.0,-100.00,WSW,255,0.0,2.0,59,0.00,,,0.00,,2013-01-08 14:33:00,
2013-01-08 09:43:00,41.0,28.0,-100.00,WSW,250,0.0,11.0,60,0.00,,,0.00,,2013-01-08 14:43:00,
2013-01-08 09:53:00,41.0,28.0,-100.00,WSW,250,0.0,11.0,60,0.00,,,0.00,,2013-01-08 14:53:00,
2013-01-08 10:03:00,40.0,27.0,-100.00,ENE,75,0.0,0.0,60,0.00,,,0.00,,2013-01-08 15:03:00,
2013-01-08 10:12:00,40.0,27.0,-100.00,ENE,75,0.0,0.0,60,0.00,,,0.00,,2013-01-08 15:12:00,
2013-01-08 10:23:00,39.0,27.0,-100.00,NE,50,8.0,11.0,62,0.00,,,0.00,,2013-01-08 15:23:00,
2013-01-08 10:33:00,39.0,27.0,-100.00,NE,50,8.0,11.0,62,0.00,,,0.00,,2013-01-08 15:33:00,
2013-01-08 10:43:00,40.0,28.0,-100.00,NE,50,1.0,11.0,62,0.00,,,0.00,,2013-01-08 15:43:00,
2013-01-08 10:53:00,40.0,28.0,-100.00,NE,50,1.0,11.0,62,0.00,,,0.00,,2013-01-08 15:53:00,
2013-01-08 11:03:00,42.0,28.0,-100.00,East,85,0.0,2.0,58,0.00,,,0.00,,2013-01-08 16:03:00,
2013-01-08 11:13:00,42.0,28.0,-100.00,East,85,0.0,2.0,58,0.00,,,0.00,,2013-01-08 16:13:00,
2013-01-08 11:23:00,44.0,27.0,-100.00,North,5,0.0,0.0,51,0.00,,,0.00,,2013-01-08 16:23:00,
2013-01-08 11:34:00,44.0,27.0,-100.00,North,5,0.0,0.0,51,0.00,,,0.00,,2013-01-08 16:34:00,
2013-01-08 11:43:00,45.0,27.0,-100.00,ENE,60,0.0,0.0,49,0.00,,,0.00,,2013-01-08 16:43:00,
2013-01-08 11:53:00,45.0,27.0,-100.00,ENE,60,0.0,0.0,49,0.00,,,0.00,,2013-01-08 16:53:00,
2013-01-08 12:03:00,47.0,26.0,-100.00,ENE,65,8.0,10.0,45,0.00,,,0.00,,2013-01-08 17:03:00,
2013-01-08 12:13:00,47.0,26.0,-100.00,ENE,65,8.0,10.0,45,0.00,,,0.00,,2013-01-08 17:13:00,
2013-01-08 12:23:00,47.0,26.0,-100.00,NE,55,1.0,11.0,43,0.00,,,0.00,,2013-01-08 17:23:00,
2013-01-08 12:34:00,47.0,26.0,-100.00,NE,55,1.0,11.0,43,0.00,,,0.00,,2013-01-08 17:34:00,
2013-01-08 12:43:00,48.0,27.0,-100.00,NE,50,2.0,11.0,43,0.00,,,0.00,,2013-01-08 17:43:00,
2013-01-08 12:54:00,48.0,27.0,-100.00,NE,50,2.0,11.0,43,0.00,,,0.00,,2013-01-08 17:54:00,
2013-01-08 13:04:00,49.0,25.0,-100.00,NE,35,0.0,10.0,39,0.00,,,0.00,,2013-01-08 18:04:00,
2013-01-08 13:13:00,49.0,25.0,-100.00,NE,35,0.0,10.0,39,0.00,,,0.00,,2013-01-08 18:13:00,
2013-01-08 13:23:00,51.0,27.0,-100.00,East,100,0.0,0.0,38,0.00,,,0.00,,2013-01-08 18:23:00,
2013-01-08 13:33:00,51.0,27.0,-100.00,East,100,0.0,0.0,38,0.00,,,0.00,,2013-01-08 18:33:00,
2013-01-08 13:43:00,49.0,28.0,-100.00,West,260,0.0,6.0,44,0.00,,,0.00,,2013-01-08 18:43:00,
2013-01-08 13:53:00,49.0,28.0,-100.00,West,260,0.0,6.0,44,0.00,,,0.00,,2013-01-08 18:53:00,
2013-01-08 14:03:00,48.0,27.0,-100.00,WSW,245,0.0,6.0,45,0.00,,,0.00,,2013-01-08 19:03:00,
2013-01-08 14:12:00,48.0,27.0,-100.00,WSW,245,0.0,6.0,45,0.00,,,0.00,,2013-01-08 19:12:00,
2013-01-08 14:23:00,47.0,28.0,-100.00,West,265,6.0,11.0,47,0.00,,,0.00,,2013-01-08 19:23:00,
2013-01-08 14:33:00,47.0,28.0,-100.00,West,265,6.0,11.0,47,0.00,,,0.00,,2013-01-08 19:33:00,
2013-01-08 14:43:00,47.0,28.0,-100.00,West,260,8.0,13.0,48,0.00,,,0.00,,2013-01-08 19:43:00,
2013-01-08 14:53:00,47.0,28.0,-100.00,West,260,8.0,13.0,48,0.00,,,0.00,,2013-01-08 19:53:00,
2013-01-08 15:03:00,47.0,29.0,-100.00,West,270,4.0,11.0,49,0.00,,,0.00,,2013-01-08 20:03:00,
2013-01-08 15:12:00,47.0,29.0,-100.00,West,270,4.0,11.0,49,0.00,,,0.00,,2013-01-08 20:12:00,
2013-01-08 15:23:00,48.0,30.0,-100.00,WNW,285,0.0,11.0,49,0.00,,,0.00,,2013-01-08 20:23:00,
2013-01-08 15:33:00,48.0,30.0,-100.00,WNW,285,0.0,11.0,49,0.00,,,0.00,,2013-01-08 20:33:00,
2013-01-08 15:43:00,48.0,30.0,-100.00,SW,220,0.0,8.0,49,0.00,,,0.00,,2013-01-08 20:43:00,
2013-01-08 15:54:00,48.0,30.0,-100.00,SW,220,0.0,8.0,49,0.00,,,0.00,,2013-01-08 20:54:00,
2013-01-08 16:03:00,49.0,31.0,-100.00,WSW,240,0.0,3.0,49,0.00,,,0.00,,2013-01-08 21:03:00,
2013-01-08 16:13:00,49.0,31.0,-100.00,WSW,240,0.0,3.0,49,0.00,,,0.00,,2013-01-08 21:13:00,
2013-01-08 16:23:00,48.0,30.0,-100.00,West,265,0.0,3.0,49,0.00,,,0.00,,2013-01-08 21:23:00,
2013-01-08 16:33:00,48.0,30.0,-100.00,West,265,0.0,3.0,49,0.00,,,0.00,,2013-01-08 21:33:00,
2013-01-08 16:43:00,48.0,30.0,-100.00,SW,225,0.0,5.0,49,0.00,,,0.00,,2013-01-08 21:43:00,
2013-01-08 16:53:00,48.0,30.0,-100.00,SW,225,0.0,5.0,49,0.00,,,0.00,,2013-01-08 21:53:00,
2013-01-08 17:04:00,46.0,29.0,-100.00,West,265,0.0,3.0,51,0.00,,,0.00,,2013-01-08 22:04:00,
2013-01-08 17:12:00,46.0,29.0,-100.00,West,265,0.0,3.0,51,0.00,,,0.00,,2013-01-08 22:12:00,
2013-01-08 17:23:00,45.0,29.0,-100.00,West,260,0.0,0.0,53,0.00,,,0.00,,2013-01-08 22:23:00,
2013-01-08 17:33:00,45.0,29.0,-100.00,West,260,0.0,0.0,53,0.00,,,0.00,,2013-01-08 22:33:00,
2013-01-08 17:43:00,44.0,29.0,-100.00,West,265,0.0,0.0,55,0.00,,,0.00,,2013-01-08 22:43:00,
2013-01-08 17:53:00,44.0,29.0,-100.00,West,265,0.0,0.0,55,0.00,,,0.00,,2013-01-08 22:53:00,
2013-01-08 18:03:00,44.0,29.0,-100.00,West,265,0.0,0.0,57,0.00,,,0.00,,2013-01-08 23:03:00,
2013-01-08 18:13:00,44.0,29.0,-100.00,West,265,0.0,0.0,57,0.00,,,0.00,,2013-01-08 23:13:00,
2013-01-08 18:23:00,43.0,29.0,-100.00,WSW,250,0.0,0.0,59,0.00,,,0.00,,2013-01-08 23:23:00,
2013-01-08 18:33:00,43.0,29.0,-100.00,WSW,250,0.0,0.0,59,0.00,,,0.00,,2013-01-08 23:33:00,
2013-01-08 18:43:00,43.0,30.0,-100.00,WNW,295,0.0,2.0,59,0.00,,,0.00,,2013-01-08 23:43:00,
2013-01-08 18:53:00,43.0,30.0,-100.00,WNW,295,0.0,2.0,59,0.00,,,0.00,,2013-01-08 23:53:00,
2013-01-08 19:03:00,43.0,30.0,-100.00,SW,230,0.0,6.0,60,0.00,,,0.00,,2013-01-09 00:03:00,
2013-01-08 19:13:00,43.0,30.0,-100.00,SW,230,0.0,6.0,60,0.00,,,0.00,,2013-01-09 00:13:00,
2013-01-08 19:22:00,41.0,30.0,-100.00,WNW,290,8.0,11.0,64,0.00,,,0.00,,2013-01-09 00:22:00,
2013-01-08 19:33:00,41.0,30.0,-100.00,WNW,290,8.0,11.0,64,0.00,,,0.00,,2013-01-09 00:33:00,
2013-01-08 19:43:00,41.0,31.0,-100.00,SW,235,7.0,11.0,67,0.00,,,0.00,,2013-01-09 00:43:00,
2013-01-08 19:53:00,41.0,31.0,-100.00,SW,235,7.0,11.0,67,0.00,,,0.00,,2013-01-09 00:53:00,
2013-01-08 20:02:00,41.0,31.0,-100.00,West,275,8.0,11.0,69,0.00,,,0.00,,2013-01-09 01:02:00,
2013-01-08 20:12:00,41.0,31.0,-100.00,West,275,8.0,11.0,69,0.00,,,0.00,,2013-01-09 01:12:00,
2013-01-08 20:22:00,40.0,32.0,-100.00,WNW,300,8.0,11.0,72,0.00,,,0.00,,2013-01-09 01:22:00,
2013-01-08 20:33:00,40.0,32.0,-100.00,WNW,300,8.0,11.0,72,0.00,,,0.00,,2013-01-09 01:33:00,
2013-01-08 20:42:00,40.0,32.0,-100.00,West,270,8.0,10.0,73,0.00,,,0.00,,2013-01-09 01:42:00,
2013-01-08 20:53:00,40.0,32.0,-100.00,West,270,8.0,10.0,73,0.00,,,0.00,,2013-01-09 01:53:00,
2013-01-08 21:02:00,40.0,32.0,-100.00,WNW,285,6.0,11.0,74,0.00,,,0.00,,2013-01-09 02:02:00,
2013-01-08 21:12:00,40.0,32.0,-100.00,WNW,285,6.0,11.0,74,0.00,,,0.00,,2013-01-09 02:12:00,
2013-01-08 21:23:00,39.0,32.0,-100.00,West,260,0.0,0.0,73,0.00,,,0.00,,2013-01-09 02:23:00,
2013-01-08 21:33:00,39.0,32.0,-100.00,West,260,0.0,0.0,73,0.00,,,0.00,,2013-01-09 02:33:00,
2013-01-08 21:43:00,40.0,31.0,-100.00,West,270,0.0,0.0,69,0.00,,,0.00,,2013-01-09 02:43:00,
2013-01-08 21:53:00,40.0,31.0,-100.00,West,270,0.0,0.0,69,0.00,,,0.00,,2013-01-09 02:53:00,
2013-01-08 22:03:00,39.0,31.0,-100.00,WNW,285,1.0,6.0,73,0.00,,,0.00,,2013-01-09 03:03:00,
2013-01-08 22:12:00,39.0,31.0,-100.00,WNW,285,1.0,6.0,73,0.00,,,0.00,,2013-01-09 03:12:00,
2013-01-08 22:22:00,40.0,31.0,-100.00,West,280,0.0,0.0,69,0.00,,,0.00,,2013-01-09 03:22:00,
2013-01-08 22:33:00,40.0,31.0,-100.00,West,280,0.0,0.0,69,0.00,,,0.00,,2013-01-09 03:33:00,
2013-01-08 22:43:00,41.0,31.0,-100.00,West,270,0.0,2.0,68,0.00,,,0.00,,2013-01-09 03:43:00,
2013-01-08 22:53:00,41.0,31.0,-100.00,West,270,0.0,2.0,68,0.00,,,0.00,,2013-01-09 03:53:00,
2013-01-08 23:02:00,40.0,31.0,-100.00,West,270,0.0,2.0,69,0.00,,,0.00,,2013-01-09 04:02:00,
2013-01-08 23:12:00,40.0,31.0,-100.00,West,270,0.0,2.0,69,0.00,,,0.00,,2013-01-09 04:12:00,
2013-01-08 23:22:00,40.0,31.0,-100.00,West,275,0.0,0.0,71,0.00,,,0.00,,2013-01-09 04:22:00,
2013-01-08 23:33:00,40.0,31.0,-100.00,West,275,0.0,0.0,71,0.00,,,0.00,,2013-01-09 04:33:00,
2013-01-08 23:43:00,40.0,31.0,-100.00,WSW,250,0.0,5.0,69,0.00,,,0.00,,2013-01-09 04:43:00,
2013-01-08 23:53:00,40.0,31.0,-100.00,WSW,250,0.0,5.0,69,0.00,,,0.00,,2013-01-09 04:53:00,